Regional Weather Roundup
Issued by NWS

Home | Current Version | Previous Version | Text Only | Print | Product List | Glossary On
Versions: 1 2 3 4 5 6 7 8 9 10 11 12 13 14 15 16 17 18 19 20 21 22 23 24 25 26 27
000
ASUS42 KKEY 012210
RWRKEY

FLORIDA REGIONAL WEATHER ROUNDUP FOR THE FLORIDA KEYS
NATIONAL WEATHER SERVICE KEY WEST FLORIDA
600 PM EDT SAT OCT 01 2016

...SOUTH FLORIDA AND THE KEYS...

CITY           SKY/WX    TMP DP  RH WIND       PRES   REMARKS
FORT MYERS     MOSUNNY   89  71  55 E9        29.93F HX  95
SW REGIONAL AP MOSUNNY   89  70  53 E9        29.94S HX  94
NAPLES         TSTM      85  74  69 W14       29.93F HX  92
MIAMI          CLOUDY    87  72  60 NE12      29.95S HX  93
WEST KENDALL   MOSUNNY   86  71  60 E15       29.95R HX  91
HOMESTEAD      MOSUNNY   85  73  67 NE12      29.94R HX  92
MARATHON       MOSUNNY   86  74  67 E15       29.93R HX  94
BOCA CHICA NAS PTSUNNY   87  75  67 E13G20    29.92S HX  96
KEY WEST INTL  MOSUNNY   86  76  71 NE8       29.92F HX  96

...INTERNATIONAL WEATHER...

CITY           SKY/WX    TMP DP  RH WIND       PRES   REMARKS
NASSAU BAHAMAS PTSUNNY   84  79  84 N7        29.95S HX  96
CANCUN MEXICO  PTSUNNY   82  77  83 NE5       29.91R HX  91
COZUMEL MEXICO PTSUNNY   86  77  74 MISG      29.91S HX  97

ADJACENT COASTAL WATERS...

STATION/POSITION TIME  SKY/WX   TEMP    WIND        PRES    WAVE
                                AIR SEA DIR/SP/G            HT/PER
                 (UTC)          (F)     (DEG/KT/KT) (MB)    (FT/S)
PULASKI SHOAL LI 2200            85      70/ 13/ 14 1013.7S
SAND KEY         2150            84     100/ 15/ 17 1013.6F
LONG KEY         2200            84 87   60/ 16/ 18 1013.9R
FOWEY ROCKS      2200            83 85   60/ 18/ 19 1014.7R

$$




USA.gov is the U.S. government's official web portal to all federal, state and local government web resources and services.